User: anonymous
Location: Hopkins Observatory
(42.6965°N, 73.1843°W)
Time: 07:54:08
(UTC-04:00)
Language:

UOSAT-12 - Orbit

View from above orbital plane
View from above orbital plane
View from above satellite
View from above satellite

Ground track
Ground track

The orbit data is extracted from the following two-line orbital elements,

1 25693U 99021A   14203.16117437  .00000008  00000-0  20303-4 0  5420
2 25693 064.5571 154.5870 0048551 284.0338 165.7632 14.79988447823099
Epoch (UTC): 22 July 2014 03:52:05
Eccentricity: 0.0048551
inclination: 64.5571°
perigee height: 595 km
apogee height: 663 km
right ascension of ascending node: 154.5870°
argument of perigee: 284.0338°
revolutions per day: 14.79988447
mean anomaly at epoch: 165.7632°
orbit number at epoch: 82309

The dashed part of the orbit path shows where the satellite is in the earth's shadow,  

DLR